Temperature
24 23 23 24 29 31 29 29 29 29 28 27 27 27 27 26 26 24 21 21 20 19 18 19 19 19 19 19 19 19 19 19 19 19 19 18 18 18 18 18 18 18 18 18 18 18 18 18 18
23 23 24 28 31 29 29 29 29 28 27 27 26 26 26 23 22 21 20 20 20 19 19 18 19 19 19 19 19 19 19 19 19 19 18 18 18 18 18 18 18 18 18 18 18 18 18 18 17
24 24 28 32 31 30 29 29 29 28 27 27 26 25 24 22 21 20 20 20 20 19 19 19 19 19 19 19 19 19 19 19 18 18 18 18 18 18 18 18 18 18 18 18 18 18 18 17 17
24 27 30 32 30 30 30 29 29 29 27 27 26 25 23 21 21 20 20 20 20 19 19 18 19 19 19 19 19 18 18 18 18 18 18 18 18 18 18 18 18 18 18 18 18 18 18 17 17
26 30 32 31 30 30 30 29 29 29 28 27 27 25 22 20 20 20 19 20 20 19 19 18 19 19 19 19 18 18 18 18 18 18 18 18 18 18 18 18 18 18 18 18 18 17 17 17 17
30 32 32 31 30 30 30 29 29 29 27 26 26 25 21 19 20 20 20 20 20 20 19 18 19 19 19 19 18 18 18 18 18 18 18 18 18 18 18 18 18 18 18 18 18 18 17 17 17
31 32 32 31 30 30 30 29 29 29 28 27 26 25 22 20 20 20 20 20 20 20 19 18 18 18 19 19 18 18 18 18 18 18 18 18 18 18 18 18 18 18 18 18 18 17 17 17 18
29 33 32 31 31 30 30 29 28 29 27 25 26 26 23 20 19 19 19 19 19 19 19 18 18 18 18 18 18 18 18 18 18 18 18 18 18 18 18 17 18 18 18 18 17 17 17 17 17
29 32 32 31 31 31 30 30 28 27 27 25 25 25 23 20 19 19 19 19 19 19 19 19 18 18 18 18 18 18 18 18 18 18 18 18 17 17 17 17 18 18 18 17 17 17 17 17 17
31 32 32 32 32 32 30 30 29 28 28 26 24 22 21 20 19 20 20 20 19 19 19 19 19 18 18 18 18 18 18 18 18 17 17 18 17 17 17 17 18 18 18 18 17 17 17 17 17
32 32 32 31 31 31 31 30 29 30 29 28 25 22 21 20 20 20 20 20 19 19 19 18 18 18 18 18 18 18 18 18 17 17 17 17 17 17 17 17 17 17 17 17 17 17 17 17 17
31 31 31 31 30 30 31 30 30 29 29 27 25 23 21 21 21 21 21 20 19 19 19 19 18 18 18 18 18 18 18 18 18 17 17 17 17 17 17 17 17 17 17 17 17 17 17 17 17
31 31 30 30 30 30 30 30 30 29 27 26 24 23 22 22 21 21 21 20 19 19 19 19 18 18 18 18 18 18 18 18 18 17 17 17 17 17 17 17 17 17 17 17 17 17 17 17 17
31 31 31 31 31 30 30 30 29 28 27 25 24 23 23 22 22 21 20 20 19 19 19 19 19 18 19 19 18 18 18 18 18 17 17 17 17 17 17 17 17 17 17 17 17 17 17 17 17
30 31 32 31 31 30 31 30 30 28 27 26 25 24 23 22 22 21 21 20 20 20 19 19 19 19 19 18 18 18 18 18 18 17 17 17 17 17 17 17 17 17 17 17 17 17 17 17 17
31 32 31 31 31 30 31 31 30 28 27 26 25 24 23 22 22 21 21 21 20 20 20 20 19 19 19 18 18 18 18 18 17 17 17 17 17 17 17 17 17 17 17 17 17 17 17 17 17
31 31 31 31 31 31 31 31 30 28 28 27 26 24 23 22 22 21 21 21 21 20 20 20 20 19 19 19 18 18 18 18 18 17 17 17 17 17 17 17 17 17 17 17 17 17 17 17 17
31 32 31 31 31 31 31 31 30 28 28 28 26 25 24 23 22 22 21 21 21 21 20 20 20 19 19 19 18 18 18 18 18 18 18 18 18 17 17 17 17 17 17 17 17 17 17 17 17
31 31 31 31 31 31 31 31 30 29 28 28 27 26 25 24 23 21 21 21 21 21 20 20 20 20 19 19 18 18 18 18 18 18 18 18 18 17 18 17 17 17 17 17 17 17 17 17 17
30 31 31 30 30 31 31 31 31 30 29 28 27 26 25 24 23 21 21 21 21 21 21 20 20 20 19 19 19 19 18 18 18 18 18 18 18 18 17 17 17 17 17 17 17 17 17 17 17
30 30 31 30 30 31 31 31 30 30 28 28 27 27 26 24 23 22 21 21 21 21 21 20 20 20 20 19 19 18 18 18 18 18 18 18 18 18 18 17 17 17 17 17 17 17 17 17 17
30 30 30 30 30 31 30 31 31 30 30 29 28 27 26 25 24 23 22 21 21 21 20 20 20 20 20 19 19 18 18 18 18 18 18 18 18 18 18 18 17 17 17 17 17 17 17 17 17
30 30 30 30 30 31 31 30 31 30 30 30 29 27 26 25 24 23 22 21 21 21 20 20 20 20 19 19 19 18 18 18 18 18 18 18 18 18 17 17 17 17 17 17 17 17 17 17 17
29 29 29 30 31 29 30 30 31 31 30 30 29 27 26 25 24 23 22 21 21 20 20 20 20 20 19 19 19 18 18 18 18 18 18 18 18 18 18 18 18 18 17 17 17 17 17 17 17
29 29 29 29 29 29 30 29 31 31 30 29 28 27 25 24 23 22 21 21 21 20 20 20 20 20 19 19 18 18 18 18 18 18 17 18 18 17 17 17 18 17 17 17 17 17 17 17 17
29 30 29 29 29 30 29 30 31 30 28 27 27 26 25 24 23 22 21 21 21 20 20 20 19 19 19 19 18 18 18 18 17 18 17 17 17 17 17 17 18 18 17 17 17 17 17 17 17
29 30 32 31 30 30 30 30 30 29 29 28 27 26 25 24 23 22 21 21 20 20 20 20 19 19 19 18 18 18 18 18 17 17 17 17 17 17 17 17 17 17 17 17 17 17 17 17 17
30 31 30 30 28 28 29 29 30 30 29 28 27 26 25 24 23 22 21 21 20 20 19 19 19 19 19 18 18 18 18 18 18 17 17 17 17 17 17 17 17 17 17 17 17 17 17 17 17
28 29 30 30 30 29 29 30 31 30 29 28 27 26 24 24 23 22 21 20 20 19 19 19 19 18 18 18 18 18 17 17 17 17 17 17 17 17 17 17 17 17 17 17 16 16 16 16 16
30 30 29 29 28 29 29 30 30 30 29 28 26 25 24 23 22 21 20 20 19 19 19 18 18 18 18 18 18 18 18 17 17 17 17 17 17 17 17 17 16 16 16 16 16 16 16 16 16
Wind_Speed
7 4 4 4 1 8 13 11 9 8 7 7 6 5 6 7 6 9 10 14 15 15 16 15 13 14 14 14 14 15 15 15 14 14 14 14 14 14 14 15 15 16 17 17 16 16 16 17 17
3 3 4 3 5 11 12 10 11 10 8 7 6 6 7 8 8 11 13 14 15 15 15 15 15 14 14 14 14 14 14 14 14 14 14 14 14 14 14 15 15 16 16 16 16 16 16 16 16
4 5 3 2 9 11 11 9 9 9 7 5 5 6 6 7 9 10 13 16 15 14 15 16 14 14 14 13 13 13 13 13 13 13 13 13 14 14 14 15 15 15 15 15 15 15 15 15 15
4 4 2 5 13 11 8 7 6 7 7 6 6 8 7 6 6 12 16 16 15 14 15 17 14 14 13 13 13 13 13 13 12 13 13 13 13 13 14 14 15 15 15 14 14 14 13 13 14
4 3 4 9 11 9 7 6 4 5 5 6 6 9 8 6 11 16 16 15 14 13 14 16 14 13 13 12 12 12 12 12 12 12 12 13 13 13 13 13 14 14 14 14 13 12 12 12 13
3 2 5 9 10 7 6 5 4 7 8 7 8 11 7 8 13 15 15 13 13 13 14 16 13 12 12 12 12 12 12 11 11 12 12 12 12 12 13 13 13 13 13 12 12 11 11 12 12
3 2 7 8 8 7 6 4 4 6 7 6 6 8 8 10 13 14 13 12 12 12 12 13 14 13 11 11 11 11 11 11 11 11 11 12 12 12 12 12 12 12 12 11 11 10 10 11 11
4 1 6 7 7 8 5 4 4 4 7 7 4 6 9 13 14 13 13 12 11 11 11 11 12 12 11 12 11 10 11 10 11 11 11 11 12 11 11 12 11 11 11 10 10 10 10 11 11
4 1 6 6 5 6 5 4 4 5 8 6 4 5 13 19 16 14 13 12 11 10 9 9 10 10 9 10 12 11 11 10 11 10 10 9 9 10 10 11 11 10 10 9 9 9 9 10 11
3 2 7 5 4 4 4 3 5 5 6 7 9 12 18 18 16 16 15 14 13 11 10 9 8 9 8 8 10 9 9 9 7 8 8 7 6 6 8 12 9 9 9 9 8 8 9 7 9
2 3 4 3 3 2 3 3 4 3 3 6 11 16 19 18 16 15 14 13 12 12 10 10 9 9 8 7 7 6 6 6 7 7 6 5 6 6 7 7 9 9 9 8 8 8 5 4 5
1 2 2 2 2 0 1 3 3 1 4 6 11 18 19 17 16 14 13 13 12 11 11 9 9 8 7 6 6 6 6 5 5 6 6 6 4 4 5 4 5 6 5 4 5 4 4 3 4
2 0 1 2 1 1 2 3 2 3 5 9 14 17 17 16 15 13 12 11 11 11 11 10 9 8 7 6 5 5 5 5 5 5 5 5 5 4 4 3 3 4 5 6 4 3 4 3 4
0 2 2 1 1 3 4 4 3 4 8 11 14 16 16 15 14 13 12 11 11 11 11 9 9 8 8 6 5 4 5 5 5 5 6 6 5 5 4 5 4 4 4 4 4 4 4 3 3
3 4 4 3 3 3 4 5 4 7 10 11 13 14 14 14 14 13 13 12 11 11 10 10 10 9 8 7 6 6 6 6 5 6 6 7 6 6 5 4 5 4 5 5 4 4 4 4 4
6 7 6 4 3 3 7 3 6 9 10 11 12 12 13 13 13 12 12 11 11 10 10 10 9 9 9 7 7 6 6 6 6 6 7 7 7 7 6 5 5 5 5 5 4 4 4 3 3
8 8 6 6 3 3 6 1 6 8 9 10 11 12 13 13 13 12 12 11 11 10 10 11 10 10 9 8 7 6 5 6 6 7 7 7 8 8 8 6 4 6 5 5 5 4 4 4 3
8 7 6 5 3 4 6 3 4 8 9 10 11 12 12 13 13 13 12 11 10 10 11 11 11 10 9 7 6 6 6 6 7 7 7 8 8 9 8 7 7 7 6 5 5 4 4 4 4
4 6 5 3 1 4 6 5 4 7 9 10 10 11 12 12 12 12 12 12 11 11 11 11 11 10 9 7 7 7 7 6 6 7 8 9 9 9 9 8 7 8 7 6 7 6 6 6 4
7 8 6 4 2 4 5 5 5 6 8 8 10 11 11 11 12 12 12 12 12 12 12 12 12 11 10 8 7 5 5 5 6 6 8 10 10 10 10 9 8 8 6 7 7 7 6 6 6
10 9 6 3 3 5 5 7 7 6 7 8 9 10 11 11 12 13 13 12 12 12 12 11 12 11 11 10 8 6 5 5 6 7 7 9 11 11 11 11 10 8 8 8 8 8 9 7 6
10 6 5 5 7 5 5 5 6 7 8 8 9 10 10 11 12 12 12 12 12 11 11 11 11 11 11 10 9 9 8 8 7 7 6 8 10 11 11 12 11 9 9 8 9 9 8 8 7
5 4 5 6 7 7 6 7 4 6 7 7 7 8 9 10 11 11 11 11 10 10 10 10 10 10 10 10 10 9 9 7 6 6 6 7 8 9 11 11 10 10 9 9 9 7 9 8 8
6 6 5 7 8 9 6 7 4 4 4 4 5 7 8 9 10 10 9 9 9 8 9 9 10 10 10 10 10 10 10 9 8 7 7 7 6 7 9 10 10 10 9 9 9 9 10 9 8
11 10 8 9 9 7 4 7 4 2 1 1 3 6 8 9 10 10 10 10 9 8 8 7 8 8 9 10 10 10 10 10 9 8 7 6 6 6 8 8 8 8 9 9 9 9 10 10 9
15 15 10 7 8 6 6 6 2 2 1 1 3 6 8 9 10 10 10 9 8 8 8 7 7 7 8 8 8 8 8 6 6 7 6 6 6 6 6 7 8 9 9 9 9 8 9 9 9
14 14 11 8 7 7 5 4 4 4 4 4 5 7 9 9 10 10 10 9 8 8 7 7 7 6 6 6 6 5 6 5 5 5 6 5 5 5 6 7 7 8 8 9 9 8 9 8 9
9 11 8 10 8 9 7 7 5 6 5 5 6 8 9 9 10 10 9 9 8 7 7 6 6 6 5 5 5 4 4 4 3 3 3 4 4 5 5 6 6 6 7 7 7 7 7 8 7
11 12 10 10 9 8 6 4 2 3 4 6 7 8 9 9 10 10 9 9 8 8 7 7 6 5 5 4 4 3 2 2 1 1 2 2 3 3 3 3 3 4 5 5 5 6 6 7 7
14 14 14 11 9 9 8 3 6 3 4 5 6 8 9 9 9 10 10 9 8 8 8 7 6 6 5 5 5 4 3 2 1 1 1 0 1 1 2 2 2 2 3 4 4 5 5 6 6
Wind_Direction
228 222 237 247 184 73 67 65 68 78 73 75 81 65 60 46 39 94 121 131 133 132 128 131 123 119 116 115 115 115 114 114 113 110 109 109 108 107 106 105 104 105 104 104 103 102 101 100 100
238 232 243 248 66 75 69 65 72 69 88 101 86 76 74 67 68 111 131 135 138 133 133 128 124 122 119 116 116 116 115 114 113 112 112 111 108 107 106 106 106 105 105 105 105 103 102 101 100
240 246 278 70 64 66 73 72 80 88 95 97 87 64 63 81 107 126 135 141 139 130 126 125 130 125 122 118 117 116 115 115 114 112 112 111 108 107 107 107 107 106 106 106 106 104 103 103 103
257 235 230 80 75 66 73 83 96 102 90 82 97 87 82 83 114 131 138 142 137 137 135 129 134 128 125 122 119 118 118 117 115 114 113 113 111 109 109 109 108 109 108 106 106 106 106 106 106
255 259 116 85 77 76 78 81 90 87 85 92 97 101 92 79 116 131 141 143 142 138 131 132 134 131 128 126 123 121 120 118 117 115 115 114 114 114 113 111 110 110 109 108 107 106 107 108 109
254 242 93 85 83 83 87 90 93 87 96 102 108 109 94 115 130 138 143 146 143 139 135 131 134 134 132 129 126 124 121 118 118 118 117 115 114 114 115 114 113 112 111 110 108 107 107 109 111
317 61 83 87 91 92 87 94 85 93 103 105 114 110 121 137 140 143 143 144 143 140 137 142 144 142 138 132 131 128 124 121 120 120 119 119 118 118 119 118 117 116 115 113 109 108 109 112 114
314 163 102 90 88 85 100 106 90 92 96 111 125 124 145 150 148 145 144 148 146 145 144 145 146 146 150 144 137 133 130 127 123 122 122 123 124 124 130 131 120 119 117 116 113 111 113 115 118
279 179 92 80 75 88 119 128 107 107 119 117 95 91 131 143 149 151 152 152 152 151 150 153 148 153 156 149 142 145 141 138 141 135 136 153 144 136 148 115 121 122 121 118 115 116 122 129 128
276 91 75 60 49 82 125 142 137 147 135 127 117 113 131 146 156 162 163 163 162 162 163 159 158 157 162 151 150 157 153 150 154 140 151 147 126 134 124 123 129 128 129 130 124 131 155 172 134
304 51 61 59 40 51 138 140 157 170 132 146 148 145 149 156 164 170 170 170 167 168 170 166 164 166 168 157 165 160 152 151 151 145 150 135 144 143 140 145 149 150 159 155 148 173 165 140 112
244 57 358 343 10 236 162 146 154 150 79 120 147 152 157 165 171 174 172 173 171 176 176 175 170 172 173 172 166 171 163 161 155 150 170 156 155 153 146 157 153 162 163 158 167 159 142 131 133
219 296 323 296 266 206 193 171 139 113 114 129 142 155 163 169 172 174 173 175 175 180 181 181 180 176 177 179 192 176 170 168 158 160 170 172 170 169 158 153 164 175 165 174 183 171 155 162 162
295 287 266 238 176 170 187 160 169 131 140 143 153 162 168 171 171 172 176 180 183 186 185 182 187 185 187 186 193 185 183 178 172 178 178 187 185 171 172 177 185 185 183 176 184 176 186 194 178
234 229 188 157 164 172 196 182 176 151 154 157 163 166 170 173 174 179 182 185 187 189 188 187 190 190 198 198 198 197 197 191 191 185 186 195 198 182 194 191 194 190 183 179 197 191 201 202 194
214 214 193 147 177 184 231 168 136 160 169 171 170 169 174 178 184 185 185 186 188 189 189 191 193 191 199 204 209 208 208 201 202 199 195 199 204 199 209 207 203 193 201 194 191 207 207 206 207
206 209 186 154 175 201 234 198 139 171 181 180 178 177 179 180 189 189 188 187 189 190 188 190 197 195 199 201 207 215 210 214 215 208 205 200 206 206 216 219 208 209 212 209 216 193 214 208 217
198 201 192 183 168 222 230 228 163 183 194 191 185 184 185 187 190 189 190 188 189 190 191 192 196 198 198 202 208 216 216 216 220 217 209 209 210 212 222 220 210 217 216 215 219 206 218 225 226
217 218 201 162 164 233 234 236 197 188 199 198 192 189 191 192 184 184 189 190 189 191 193 195 198 194 196 201 208 211 216 218 219 220 215 214 217 216 222 230 211 222 219 219 217 212 209 219 217
217 220 204 171 176 245 243 240 207 198 205 207 201 195 193 188 183 183 190 193 195 195 195 195 200 196 199 202 208 215 220 226 225 225 215 220 220 222 221 226 227 221 222 218 222 219 230 225 212
218 227 220 208 203 216 248 225 202 194 205 206 207 202 195 191 187 186 192 196 196 195 196 199 200 197 201 203 205 207 208 223 222 222 220 220 222 224 231 228 230 225 227 219 220 219 224 230 226
213 215 222 218 231 215 240 251 181 193 202 203 202 200 197 193 191 190 191 194 197 198 195 197 197 199 199 201 208 210 218 222 223 222 224 223 224 228 229 230 230 228 229 224 225 221 225 228 231
209 175 211 226 240 248 223 261 189 182 213 201 194 195 197 193 191 189 191 192 194 194 193 194 195 200 201 204 207 216 229 233 233 228 231 229 227 230 231 230 230 226 230 230 232 228 229 228 234
172 176 191 226 238 239 232 256 242 194 217 199 183 185 189 184 182 180 180 177 180 181 186 190 191 197 200 204 210 218 230 236 238 237 237 228 226 230 229 229 228 228 229 228 228 228 228 234 239
201 205 207 215 222 230 186 246 258 77 95 231 192 177 174 173 172 171 172 171 170 175 179 181 186 193 198 203 210 218 228 232 235 240 240 238 233 231 226 229 228 231 231 231 229 228 236 233 234
208 218 224 230 228 209 187 239 213 107 143 184 173 162 161 164 166 167 168 168 166 169 172 174 180 184 189 196 205 214 223 229 235 241 247 242 246 244 238 231 230 233 234 235 231 233 234 232 233
204 222 237 244 250 245 215 222 216 173 177 165 159 160 159 160 162 162 161 161 160 163 169 173 173 174 179 184 194 205 213 225 234 240 244 248 249 250 244 240 236 235 235 238 235 233 235 234 233
232 212 215 232 233 238 226 230 228 189 184 166 164 163 157 157 157 155 154 154 153 154 158 160 160 160 166 173 183 186 194 208 221 243 249 256 262 266 259 248 244 241 241 239 237 236 235 232 234
193 204 214 228 238 246 236 217 145 175 169 170 163 160 157 155 153 149 147 145 144 143 144 145 142 141 142 146 150 145 149 159 183 220 251 258 267 268 265 258 253 248 245 241 236 239 238 235 237
210 209 206 215 221 241 262 222 113 143 156 158 155 152 150 146 142 140 139 138 140 140 139 137 137 133 128 128 126 122 115 117 130 99 3 351 314 305 292 276 258 255 247 243 240 241 242 240 240
Height
1502 1501 1501 1503 1496 1495 1504 1502 1500 1503 1506 1510 1512 1512 1513 1517 1519 1532 1536 1537 1540 1542 1543 1544 1545 1547 1548 1549 1551 1552 1553 1553 1554 1555 1555 1556 1557 1558 1558 1559 1559 1560 1560 1561 1562 1563 1563 1564 1564
1504 1503 1504 1500 1494 1506 1510 1503 1505 1507 1511 1513 1515 1516 1518 1524 1528 1532 1536 1539 1542 1544 1546 1547 1547 1549 1550 1552 1553 1554 1555 1556 1556 1557 1558 1559 1559 1560 1561 1561 1562 1562 1563 1564 1564 1565 1566 1566 1567
1505 1504 1504 1494 1499 1507 1510 1506 1507 1511 1513 1515 1517 1520 1523 1529 1532 1535 1538 1540 1544 1546 1548 1547 1549 1551 1552 1554 1555 1556 1557 1558 1559 1560 1560 1561 1562 1562 1563 1564 1564 1565 1566 1566 1567 1568 1568 1569 1569
1507 1507 1502 1495 1504 1505 1505 1507 1509 1511 1515 1517 1518 1522 1528 1533 1535 1537 1539 1543 1546 1548 1550 1549 1551 1553 1554 1556 1557 1558 1559 1560 1561 1562 1562 1563 1564 1565 1565 1566 1567 1567 1568 1569 1570 1570 1571 1572 1572
1508 1503 1496 1500 1504 1505 1506 1509 1510 1510 1515 1518 1519 1524 1531 1535 1536 1539 1541 1545 1547 1550 1552 1551 1553 1555 1556 1558 1559 1560 1561 1562 1563 1564 1564 1565 1566 1567 1568 1568 1569 1570 1571 1571 1572 1573 1573 1574 1574
1506 1498 1498 1506 1507 1506 1508 1511 1511 1513 1517 1521 1522 1526 1534 1537 1539 1541 1544 1547 1550 1552 1554 1553 1554 1556 1558 1560 1561 1562 1563 1564 1565 1565 1566 1567 1568 1569 1570 1570 1571 1572 1573 1574 1574 1575 1576 1576 1577
1506 1497 1501 1504 1507 1507 1509 1512 1512 1514 1518 1522 1524 1527 1535 1539 1541 1543 1546 1548 1551 1553 1555 1556 1557 1558 1559 1561 1562 1564 1565 1566 1566 1567 1568 1569 1570 1571 1571 1572 1573 1574 1575 1576 1577 1577 1578 1578 1579
1508 1499 1501 1503 1506 1508 1511 1513 1515 1516 1520 1525 1526 1528 1534 1539 1541 1544 1547 1550 1552 1555 1556 1558 1560 1561 1562 1563 1564 1565 1566 1567 1568 1569 1570 1571 1571 1572 1573 1574 1575 1576 1577 1578 1579 1579 1580 1581 1581
1509 1500 1504 1505 1506 1508 1511 1513 1517 1520 1522 1526 1528 1529 1533 1537 1541 1544 1547 1550 1553 1555 1557 1559 1561 1562 1564 1566 1565 1566 1567 1568 1569 1570 1571 1572 1574 1575 1576 1576 1577 1578 1579 1580 1581 1581 1582 1583 1583
1507 1502 1505 1506 1506 1507 1511 1513 1516 1519 1521 1525 1529 1532 1534 1537 1541 1545 1548 1550 1553 1555 1558 1559 1561 1562 1565 1566 1566 1568 1569 1569 1571 1572 1573 1575 1575 1577 1578 1577 1578 1579 1580 1581 1582 1583 1584 1585 1586
1506 1504 1506 1508 1509 1510 1511 1513 1516 1516 1518 1523 1528 1532 1535 1539 1542 1546 1548 1551 1553 1555 1557 1560 1561 1562 1565 1566 1567 1569 1570 1570 1572 1573 1574 1575 1576 1578 1579 1580 1580 1581 1582 1584 1584 1585 1587 1588 1588
1509 1509 1510 1509 1511 1511 1511 1513 1515 1517 1520 1524 1527 1531 1535 1539 1542 1545 1548 1551 1553 1555 1557 1560 1561 1562 1564 1566 1568 1569 1570 1571 1573 1573 1574 1576 1577 1578 1580 1580 1581 1582 1584 1584 1586 1587 1588 1588 1588
1509 1509 1511 1510 1511 1511 1513 1513 1516 1519 1522 1525 1528 1532 1535 1539 1542 1546 1548 1551 1553 1555 1557 1559 1560 1562 1563 1564 1567 1569 1570 1572 1572 1573 1574 1575 1577 1579 1580 1580 1581 1583 1584 1585 1586 1587 1587 1588 1589
1510 1510 1510 1510 1510 1512 1512 1514 1516 1520 1523 1526 1529 1532 1536 1539 1542 1545 1548 1550 1552 1554 1556 1558 1560 1561 1563 1564 1566 1568 1570 1570 1572 1573 1574 1575 1577 1578 1579 1580 1581 1583 1584 1585 1586 1587 1588 1589 1589
1512 1509 1508 1509 1510 1511 1512 1513 1515 1519 1523 1526 1529 1533 1536 1539 1542 1544 1546 1548 1551 1553 1555 1557 1559 1561 1562 1564 1566 1567 1569 1570 1571 1572 1573 1574 1576 1577 1579 1580 1581 1583 1584 1584 1585 1586 1588 1588 1589
1508 1507 1508 1508 1509 1511 1512 1512 1513 1519 1522 1525 1528 1532 1535 1538 1541 1544 1545 1547 1550 1552 1554 1556 1559 1560 1561 1563 1564 1567 1568 1569 1570 1571 1572 1573 1575 1576 1577 1580 1581 1582 1583 1584 1585 1586 1587 1588 1589
1506 1507 1507 1509 1508 1509 1509 1509 1513 1518 1520 1523 1527 1531 1534 1537 1540 1542 1544 1546 1549 1551 1552 1554 1557 1558 1560 1562 1563 1565 1566 1567 1568 1569 1571 1572 1573 1574 1576 1578 1580 1580 1582 1583 1584 1585 1586 1587 1588
1507 1505 1507 1508 1507 1508 1508 1508 1511 1516 1518 1521 1525 1528 1532 1535 1537 1540 1543 1545 1547 1549 1551 1553 1554 1556 1558 1560 1561 1563 1564 1565 1566 1567 1568 1570 1571 1573 1575 1576 1578 1579 1581 1582 1583 1583 1584 1585 1586
1503 1505 1507 1507 1507 1507 1507 1507 1508 1513 1516 1518 1522 1526 1529 1532 1536 1538 1540 1542 1544 1546 1548 1550 1552 1554 1555 1557 1559 1561 1562 1563 1564 1565 1566 1568 1569 1571 1572 1575 1576 1577 1579 1580 1581 1582 1583 1584 1585
1507 1508 1508 1508 1508 1507 1507 1506 1505 1509 1513 1516 1519 1523 1526 1530 1533 1535 1537 1540 1542 1544 1546 1548 1550 1552 1553 1555 1557 1559 1560 1561 1562 1563 1564 1565 1567 1568 1571 1572 1574 1575 1576 1577 1579 1579 1581 1582 1583
1508 1507 1507 1509 1508 1506 1507 1507 1505 1507 1511 1515 1517 1520 1523 1527 1530 1532 1535 1537 1539 1541 1543 1545 1547 1549 1550 1552 1555 1556 1557 1558 1559 1560 1561 1562 1564 1566 1567 1569 1571 1572 1574 1575 1576 1577 1578 1579 1580
1510 1505 1507 1509 1510 1507 1509 1512 1504 1503 1506 1510 1513 1517 1520 1524 1527 1530 1532 1534 1536 1538 1540 1542 1544 1546 1548 1550 1552 1553 1554 1555 1556 1557 1559 1560 1561 1563 1564 1566 1567 1569 1571 1572 1573 1574 1575 1576 1577
1504 1506 1507 1507 1507 1508 1507 1511 1501 1501 1504 1505 1509 1514 1517 1521 1524 1527 1529 1531 1534 1536 1537 1539 1541 1543 1545 1547 1548 1550 1551 1553 1554 1555 1556 1557 1558 1560 1561 1563 1564 1565 1567 1568 1570 1571 1572 1573 1574
1506 1508 1509 1507 1505 1518 1509 1513 1507 1496 1500 1502 1506 1511 1515 1518 1521 1524 1527 1529 1531 1533 1535 1536 1537 1539 1541 1543 1545 1547 1548 1550 1551 1552 1553 1554 1555 1556 1558 1559 1560 1561 1563 1564 1565 1566 1568 1569 1570
1506 1510 1519 1521 1519 1515 1506 1512 1504 1496 1499 1502 1505 1509 1513 1516 1519 1522 1525 1527 1529 1530 1532 1534 1535 1536 1538 1540 1542 1544 1546 1547 1548 1549 1550 1551 1552 1553 1554 1556 1556 1558 1559 1560 1561 1562 1564 1565 1566
1501 1501 1514 1524 1520 1509 1510 1510 1497 1497 1501 1504 1505 1508 1512 1515 1517 1520 1523 1525 1527 1529 1531 1532 1533 1534 1536 1538 1540 1542 1543 1545 1545 1546 1547 1548 1549 1550 1551 1552 1553 1554 1555 1556 1557 1558 1559 1560 1561
1498 1498 1489 1500 1506 1511 1504 1501 1496 1496 1499 1502 1505 1507 1510 1513 1516 1519 1522 1525 1527 1528 1530 1531 1532 1534 1535 1536 1538 1540 1541 1542 1543 1543 1544 1545 1545 1546 1547 1548 1549 1550 1551 1551 1553 1553 1554 1556 1557
1491 1490 1498 1502 1518 1520 1510 1506 1499 1495 1497 1500 1503 1506 1510 1513 1516 1519 1522 1524 1526 1528 1529 1530 1531 1533 1534 1536 1537 1538 1539 1540 1540 1541 1541 1542 1542 1543 1543 1544 1545 1546 1547 1547 1548 1549 1550 1551 1552
1497 1496 1495 1496 1498 1512 1515 1505 1487 1491 1494 1498 1502 1506 1510 1513 1516 1519 1521 1523 1525 1527 1528 1529 1531 1532 1533 1535 1536 1537 1538 1538 1539 1539 1539 1540 1540 1540 1540 1541 1541 1542 1542 1543 1544 1545 1546 1547 1548
1485 1488 1493 1504 1508 1504 1503 1500 1488 1491 1494 1498 1502 1507 1510 1513 1516 1519 1521 1523 1525 1527 1528 1529 1531 1532 1533 1534 1535 1536 1537 1537 1538 1538 1538 1538 1538 1538 1538 1538 1538 1538 1539 1540 1540 1541 1542 1542 1543